Location: Isola Pescaroli
(45.0500°N, 10.1667°E)
Time: 19:38:43
(UTC+00:00)

Cosmos 2322 Rocket - Pass Details

Date: 03 March 2021
Orbit: 832 x 852 km, 71.0° (Epoch: 19 April)

Event Time Altitude Azimuth Distance (km) Brightness Sun altitude
Rises 19:06:55 0° 234° (SW) 3,366 5.9 -21.4°
Reaches altitude 10° 19:09:35 10° 244° (WSW) 2,437 5.3 -21.9°
Maximum altitude 19:14:34 32° 307° (NW) 1,389 3.9 -22.7°
Drops below altitude 10° 19:19:36 10° 10° (N) 2,456 4.7 -23.6°
Sets 19:22:19 0° 20° (NNE) 3,396 5.3 -24.0°
